Tracking 28790 objects as of 19-Apr-2024
HD Live streaming from Space Station
objects crossing your sky now

THORAD AGENA D DEB

Track THORAD AGENA D DEB now!
10-day predictions


NORAD ID: 4934
Int'l Code: 1970-025GA
Perigee: 988.5 km
Apogee: 997.9 km
Inclination: 100.0 °
Period: 104.8 minutes
Semi major axis: 7364 km
RCS: 0.012 m2 (small)
Launch date: April 8, 1970
Source: United States (US)
Launch site: AIR FORCE WESTERN TEST RANGE (AFWTR)

Note: This is SATELLITE DEBRIS
Your satellite tracking list
Your tracking list is empty




NASA's NSSDC Master Catalog

Two Line Element Set (TLE):
1 04934U 70025GA  24109.52187403  .00001331  00000-0  14748-2 0  9994
2 04934 100.0047 187.3226 0006388  61.2529  67.1812 13.73765104687871
Source of the keplerian elements: AFSPC